Location: Baix
(44.7118°N, 4.7648°E)
Time: 01:54:02
(UTC+00:00)

Cosmos 1455 Rocket - Pass Details

Date: 07 August 2020
Orbit: 604 x 630 km, 82.5° (Epoch: 19 September)

Event Time Altitude Azimuth Distance (km) Brightness Sun altitude
Exits shadow 03:11:30 20° 242° (WSW) 1,437 4.3 -13.3°
Maximum altitude 03:13:38 30° 287° (WNW) 1,128 4.1 -13.0°
Drops below altitude 10° 03:17:34 10° 348° (NNW) 2,012 6.0 -12.5°
Sets 03:20:03 0° 360° (N) 2,927 7.1 -12.1°
